Regional Weather Roundup
Issued by NWS Little Rock, AR

Home | Current Version | Previous Version | Text Only | Print | Product List | Glossary On
Versions: 1 2 3 4 5 6 7 8 9 10 11 12 13 14 15 16 17 18 19 20 21 22 23 24 25 26 27 28 29 30 31 32
000
ASUS44 KLZK 171305
RWRLZK

WEATHER ROUNDUP FOR ARKANSAS
NATIONAL WEATHER SERVICE LITTLE ROCK AR
700 AM CST TUE JAN 17 2017

NOTE: "FAIR" INDICATES FEW OR NO CLOUDS BELOW 12,000 FEET WITH NO
SIGNIFICANT WEATHER AND/OR OBSTRUCTIONS TO VISIBILITY.

ARZ001-003-010-029-171400-
NORTHWEST ARKANSAS

CITY           SKY/WX    TMP DP  RH WIND       PRES   REMARKS
FAYETTEVILLE   CLOUDY    37  36  96 W6        30.09R
FORT SMITH     CLOUDY    36  33  89 W7        30.13R
HARRISON       CLOUDY    39  35  86 W10G18    30.05S
BENTONVILLE    CLOUDY   N/A N/A N/A W7        30.09R
ROGERS         CLOUDY    37  36  96 W8        30.08S
SILOAM SPGS    CLOUDY    37  34  87 W6        30.09R
HIGHFILL       CLOUDY    38  36  92 W6        30.08R
SPRINGDALE     CLOUDY    37  36  93 W9        30.10S
$$

ARZ004-005-016-171400-
NORTH CENTRAL ARKANSAS

CITY           SKY/WX    TMP DP  RH WIND       PRES   REMARKS
BATESVILLE     MOCLDY    45  39  81 W7        30.06S
FLIPPIN        CLOUDY    43  32  65 W6        30.05S
MTN HOME       CLOUDY    40  36  86 VRB6      30.05R
$$

ARZ040-041-171400-
WEST CENTRAL ARKANSAS

CITY           SKY/WX    TMP DP  RH WIND       PRES   REMARKS
MENA           MOCLDY    41  41 100 SW3       30.11R
MOUNT IDA      CLOUDY    45  38  76 N3        30.08R
$$

ARZ009-017-025-026-028-171400-
NORTHEAST ARKANSAS

CITY           SKY/WX    TMP DP  RH WIND       PRES   REMARKS
CORNING        FAIR      41  41 100 W6        30.05S
JONESBORO      CLOUDY    47  41  80 W7        30.05R
NEWPORT        CLOUDY    47  45  93 MISG      30.07
WALNUT RIDGE   CLOUDY    45  37  76 W5        30.05R
BLYTHEVILLE    CLOUDY    51  44  77 W9        30.06R
$$

ARZ022-023-033-042-044-171400-
CENTRAL ARKANSAS

CITY           SKY/WX    TMP DP  RH WIND       PRES   REMARKS
LITTLE ROCK    CLOUDY    48  44  86 W9        30.10R
N LITTLE ROCK    N/A     46  43  88 NW3       30.10R
JACKSONVILLE   CLOUDY    48  43  82 W8        30.08R
SEARCY         CLOUDY    48  41  76 CALM      30.10R
HOT SPRINGS    CLOUDY    48  43  82 VRB7      30.09S
RUSSELLVILLE   CLOUDY    41  36  82 W7G18     30.10R
CLINTON        FAIR      41  39  93 W5        30.08R
$$

ARZ036-171400-
EAST ARKANSAS

CITY           SKY/WX    TMP DP  RH WIND       PRES   REMARKS
WEST MEMPHIS   CLOUDY    52  52 100 W5        30.08R
$$

ARZ050-053-066-070-073-171400-
SOUTHWEST ARKANSAS

CITY           SKY/WX    TMP DP  RH WIND       PRES   REMARKS
ARKADELPHIA    CLOUDY    50  49  96 SW3       30.10R
CAMDEN         CLOUDY    52  48  87 CALM      30.11R
TEXARKANA      CLOUDY    50  50 100 W7        30.13R
EL DORADO      CLOUDY    53  50  89 CALM      30.12R
DE QUEEN       CLOUDY    44  40  85 W5        30.13R
$$

ARZ056-057-069-171400-
SOUTHEAST ARKANSAS

CITY           SKY/WX    TMP DP  RH WIND       PRES   REMARKS
PINE BLUFF     CLOUDY    52  49  89 SW3       30.10R
STUTTGART      CLOUDY    52  43  71 W6        30.10R
MONTICELLO     CLOUDY    55  51  86 W5        30.10R

$$






USA.gov is the U.S. government's official web portal to all federal, state and local government web resources and services.